Regional Weather Roundup
Issued by NWS

Home | Current Version | Previous Version | Graphics & Text | Print | Product List | Glossary On
Versions: 1 2 3 4 5 6 7 8 9 10 11 12 13 14 15 16 17 18 19 20 21 22 23 24 25 26 27 28 29 30 31 32 33 34 35 36 37 38 39 40 41 42 43 44 45 46 47 48 49 50
000
ASUS43 KLOT 280606
RWRIL

ILLINOIS REGIONAL WEATHER ROUNDUP
NATIONAL WEATHER SERVICE CHICAGO/ROMEOVILLE IL
100 AM CDT MON JUL 28 2014

NOTE: "FAIR" INDICATES FEW OR NO CLOUDS BELOW 12,000 FEET WITH NO
SIGNIFICANT WEATHER AND/OR OBSTRUCTIONS TO VISIBILITY.

* THESE STATIONS ARE NOT UNDER NWS QUALITY CONTROL. THEY ALSO MAY NOT
  REPORT WEATHER SUCH AS PRECIPITATION OR FOG.

ILZ001-002-007-009-015-016-024-280700-
NORTHWEST ILLINOIS

CITY           SKY/WX    TMP DP  RH WIND       PRES   REMARKS
MOLINE         MOCLDY    68  60  75 NW8       29.99R
6HR MIN TEMP:  67; 6HR MAX TEMP:  75;

STERLING*      PTCLDY    64  57  77 N7        29.98R
SAVANNA*       PTCLDY    66  58  74 N12       29.99R
$$

ILZ003-004-008-010-011-017-018-280700-
NORTH CENTRAL ILLINOIS

CITY           SKY/WX    TMP DP  RH WIND       PRES   REMARKS
ROCKFORD       PTCLDY    65  56  72 N22       29.99R
6HR MIN TEMP:  65; 6HR MAX TEMP:  75;

FREEPORT*      PTCLDY    61  58  88 N6        30.01R
ROCHELLE*      PTCLDY    65  57  74 N12G20    29.97R
DE KALB*       CLOUDY    62  53  70 N10G18    29.97R
PERU*          CLOUDY    64  60  87 NW8       29.96R
$$

ILZ005-006-012>014-019>023-280700-
NORTHEAST ILLINOIS

CITY           SKY/WX    TMP DP  RH WIND       PRES   REMARKS
CHICAGO-OHARE  CLOUDY    66  51  58 N16G26    29.92R
6HR MIN TEMP:  65; 6HR MAX TEMP:  75; 6HR PCP:  0.02;

CHICAGO-MIDWAY MOCLDY    67  53  61 N20G30    29.91R
6HR MIN TEMP:  66; 6HR MAX TEMP:  77; 6HR PCP:  0.04;

AURORA         CLOUDY    64  59  83 NW7       29.94R
6HR MIN TEMP:  64; 6HR MAX TEMP:  74;

LANSING*       CLOUDY    64  53  66 N20G28    29.91S
JOLIET*        CLOUDY    65  56  70 N10       29.94R
WAUKEGAN       CLOUDY    63  51  65 N8G20     29.92R
6HR MIN TEMP:  63; 6HR MAX TEMP:  74; 6HR PCP:  0.14;

DUPAGE AIRPORT CLOUDY    65  58  78 N10       29.93R
6HR MIN TEMP:  64; 6HR MAX TEMP:  74; 6HR PCP:  0.01;

KANKAKEE*      CLOUDY    66  60  81 N10G17    29.91R
WHEELING       CLOUDY    66  53  63 N14G22    29.94R
6HR MIN TEMP:  65; 6HR MAX TEMP:  75; 6HR PCP:  0.03;

MORRIS*        MOCLDY    65  58  78 N6        29.93R
ROMEOVILLE*    CLOUDY    65  56  74 N10       29.93R
NORTHERLY ISL    N/A     65  54  67 NW21        N/A
$$

LMZ740>746-280700-
SOUTHERN LAKE MICHIGAN

STATION/POSITION SKY/WX   TEMP    WIND        PRES    VSBY  WAVE
                          AIR SEA DIR/SP/G                  HT/PER
                          (F)     (DEG/KT/KT) (MB)    (MI)  (FT/S)
SOUTHERN BUOY              62 60  340/ 25/ 29 1011.3R         9/ 7
WAUKEGAN HARBOR            65     350/ 16/ 25   N/A
HARRISON CRIB              65     350/ 27/ 33   N/A
BURNHAM HARBOR             65     320/ 11/ 23   N/A
CALUMET HARBOR             65     340/ 18/ 23 1011.7S
BURNS HARBOR               65     360/ 25     1011.9F
MICHIGAN CITY              64     340/ 33/ 43   N/A
MICHIGAN CITY 6N           65 68  360/ 25/ 31   N/A           9/ 6
ST. JOSEPH                 63 64  350/ 21/ 29   N/A          10/ 6
$$

ILZ025>027-034>036-040-047-049-050-058-095>099-280700-
WEST-CENTRAL ILLINOIS

CITY           SKY/WX    TMP DP  RH WIND       PRES   REMARKS
QUINCY         CLEAR     64  58  80 NW7       30.03R
GALESBURG*     CLEAR     63  61  93 NW6       29.99R
MACOMB*        CLEAR     62  60  93 NW8       30.01S
JACKSONVILLE*  CLEAR     67  60  78 NW8       30.00S
PITTSFIELD*    CLEAR     67  58  72 W9        30.03S
$$

ILZ028>032-037-038-041>044-048-051>054-059>061-280700-
CENTRAL ILLINOIS

CITY           SKY/WX    TMP DP  RH WIND       PRES   REMARKS
PONTIAC        CLEAR     64  63  94 NW6       29.93R
DECATUR        CLEAR     67  59  75 NW14G21   29.94S
PEORIA         CLEAR     67  59  75 NW8       29.96R
6HR MIN TEMP:  67; 6HR MAX TEMP:  77;

LACON*         CLEAR     65  59  80 N5        29.95R
LINCOLN*       CLEAR     66  60  81 CALM      29.93S
SPRINGFIELD    CLEAR     67  60  78 W9        29.97R
6HR MIN TEMP:  67; 6HR MAX TEMP:  77;

TAYLORVILLE    CLEAR     63  59  88 W8        29.96S
$$

ILZ033-039-045-046-055>057-062-063-280700-
EAST-CENTRAL ILLINOIS

CITY           SKY/WX    TMP DP  RH WIND       PRES   REMARKS
CHAMPAIGN      CLEAR     63  60  90 NW10      29.91S
DANVILLE*      PTCLDY    63  59  86 W8        29.87R
RANTOUL*       CLEAR     67  59  76 NW9       29.92S
MATTOON        CLEAR     64  59  83 W12       29.92R
PARIS*         CLEAR     64  60  88 NW7       29.91R
$$

ILZ079-100>102-280700-
SOUTHWEST ILLINOIS

CITY           SKY/WX    TMP DP  RH WIND       PRES   REMARKS
ALTON          CLEAR     68  60  73 NW7       30.00S
BELLEVILLE     CLEAR     71  58  65 W9        29.98R
CAHOKIA*       CLEAR     73  57  57 NW22      29.99S
SPARTA*        CLEAR     68  57  68 NW6       29.99S
$$

ILZ064>066-069>071-074>076-080>082-084>086-088>090-092>094-280700-
SOUTH-CENTRAL ILLINOIS

CITY           SKY/WX    TMP DP  RH WIND       PRES   REMARKS
CARBONDALE     CLEAR     68  58  70 CALM      29.98R
6HR MIN TEMP:  68; 6HR MAX TEMP:  87;

CAIRO*         CLEAR     73  60  63 N6        29.98R
EFFINGHAM*     CLEAR     68  55  63 NW13G18   29.94S
MARION         CLEAR     73  57  56 NW5       29.98S
MT. VERNON     CLEAR     70  55  60 N6        29.97R
CENTRALIA*     CLEAR     69  56  63 NW13G18   29.96F
SALEM*         CLEAR    N/A N/A N/A NW8       29.97R
METROPOLIS*    CLEAR     73  55  52 N3        29.97R
$$

ILZ067-068-072-073-078-083-087-091-280700-
SOUTHEAST ILLINOIS

CITY           SKY/WX    TMP DP  RH WIND       PRES   REMARKS
LAWRENCEVILLE  CLEAR     67  60  78 NW9       29.92R
FLORA*         CLEAR     67  58  71 NW10      29.95S
FAIRFIELD*     CLEAR     70  61  73 NW6       29.94S
HARRISBURG*    CLEAR     68  59  72 NW5       29.97S
ROBINSON*      CLEAR     67  61  79 W8        29.91S
CARMI*         CLEAR     66  63  88 W5        29.94R
$$

ABBREVIATIONS USED IN REMARKS
   TC - TEMPERATURE IN CELSIUS
  WCI - WIND CHILL INDEX
   HX - HEAT INDEX
  VSB - VISIBILITY
$$



USA.gov is the U.S. government's official web portal to all federal, state and local government web resources and services.